星链-3315 (STARLINK-3315 )

导读 | 星芒AI

STARLINK-3315 是 SpaceX Starlink 项目中的一颗低轨通信卫星,属于第三代星链卫星(v1.5 或 v2 版本)。该卫星旨在为全球用户提供高速、低延迟的互联网服务,支持偏远地区和网络基础设施薄弱区域的通信需求。它运行在约 550 公里的轨道高度,采用先进推进系统和激光通信技术,以提升连接效率和系统稳定性。STARLINK-3315 的发射和运行有助于扩展 Starlink 网络的覆盖范围和性能。

基本信息
目录编号:
50848
目录名称:
STARLINK-3315
国际标识:
2022-001AX
轨道中心:
EARTH
卫星名称:
星链-3315
卫星全名:
星链-3315 (STARLINK-3315 )
卫星状态:
在轨 (已飞行1444 天)
发射日期:
2022-01-06 UTC
国别 :
美国 (US)
星等 :
--
轨道信息
数据来源 国际轨道数据 AOE轨道数据
星历时间 2025-12-20T04:07:15+0800
16小时前
查看轨道信息
2025-12-14T13:00:00+0800
6天前
查看轨道信息
半长轴 6917.889km 6917.867km
偏心率 0.000132 0.0001483
轨道倾角 53.217° 53.217°
近地点辐角 89.578° 75.106°
升交点赤经 177.588° 202.866°
平近点角 270.536° 287.077°
近地点 538.838km 538.706km
远地点 540.666km 540.758km
周期 95.438分钟 95.437分钟
每日圈数 15.088372 15.088446
详细信息
固有亮度:
5
最大亮度:
2.5
卫星平台:
Starlink v1.5
覆盖范围:
全球
运营商:
太空探索技术公司
运营商所在国:
美国
制造商(研发单位):
太空探索技术公司
制造商所在国:
美国
使用方式:
暂无
卫星简介
星链(Starlink)计划是由太空探索技术公司(SpaceX)提出的一个巨型低轨卫星互联网星座项目,计划在2019年至2024年间在太空搭建由约1.2万颗卫星组成的“星链”网络,其中1584颗将部署在地球上空550千米处的近地轨道,并从2020年开始工作。该卫星仍在工作。
2D轨道图
3D轨道图
轨道高度分析图
轨道倾角分析图
轨道综合分析图
查看轨道综合分析图